Location: Unspecified
(44.0704°N, 88.6889°W)
Time: 21:12:21
(UTC+02:00)

Transit 2A - Visible Passes

Search period start: 07 August 2020 00:00
Search period end: 17 August 2020 00:00
Orbit: 591 x 967 km, 66.7° (Epoch: 07 August)

Date Brightness Start Highest point End Pass type
(mag) Time Alt. Az. Time Alt. Az. Time Alt. Az.
07 Aug 6.4 04:19:22 10° S 04:24:53 53° ESE 04:30:54 10° NE visible
07 Aug 8.0 06:03:09 10° WSW 06:08:27 33° NW 06:14:07 10° NNE visible
07 Aug 9.4 07:51:44 10° NW 07:53:49 12° NNW 07:55:57 10° N visible
07 Aug 9.3 11:22:18 10° N 11:26:31 18° NNE 11:30:39 10° ENE visible
08 Aug 6.8 03:45:41 10° S 03:50:53 38° ESE 03:56:31 10° NE visible
08 Aug 7.6 05:28:31 10° WSW 05:34:05 43° NW 05:40:05 10° NNE visible
08 Aug 9.3 07:16:05 10° NW 07:19:08 14° NNW 07:22:15 10° N visible
08 Aug 9.4 10:48:25 10° N 10:51:54 15° NNE 10:55:20 10° ENE visible
09 Aug 7.0 04:54:03 10° SW 04:59:46 57° NW 05:06:00 10° NNE visible
09 Aug 9.2 06:40:42 10° WNW 06:44:30 17° NNW 06:48:25 10° N visible
09 Aug 9.5 10:14:39 10° N 10:17:13 12° NNE 10:19:46 10° NE visible
09 Aug 8.2 11:56:38 10° NNW 12:02:29 36° NE 12:08:05 10° ESE visible
10 Aug 6.5 04:19:44 10° SW 04:25:32 77° WNW 04:31:52 10° NNE visible
10 Aug 8.9 06:05:30 10° W 06:09:55 20° NW 06:14:31 10° NNE visible
10 Aug 9.7 09:41:09 10° N 09:42:30 11° NNE 09:43:50 10° NNE visible
10 Aug 8.6 11:22:37 10° NNW 11:28:04 29° NE 11:33:19 10° E visible
11 Aug 6.3 03:45:37 10° SSW 03:51:22 79° ESE 03:57:40 10° NE visible
11 Aug 8.7 05:30:29 10° W 05:35:24 25° NW 05:40:33 10° NNE visible
11 Aug 8.9 10:48:38 10° NNW 10:53:35 23° NE 10:58:23 10° E visible
12 Aug 8.3 04:55:39 10° WSW 05:00:57 32° NW 05:06:33 10° NNE visible
12 Aug 9.6 06:44:27 10° NW 06:46:22 11° NNW 06:48:19 10° N visible
12 Aug 9.2 10:14:42 10° N 10:19:02 19° NNE 10:23:16 10° ENE visible
12 Aug 6.9 11:57:13 10° NNW 12:03:35 66° NE 12:09:32 10° SE visible
13 Aug 7.8 04:20:59 10° WSW 04:26:33 41° NW 04:32:31 10° NNE visible
13 Aug 9.5 06:08:44 10° NW 06:11:40 13° NNW 06:14:40 10° N visible
13 Aug 9.4 09:40:48 10° N 09:44:26 15° NNE 09:47:59 10° ENE visible
13 Aug 7.4 11:23:07 10° NNW 11:29:19 50° NE 11:35:08 10° SE visible
14 Aug 7.3 03:46:28 10° SW 03:52:14 54° NW 03:58:27 10° NNE visible
14 Aug 9.3 05:33:19 10° WNW 05:37:02 16° NNW 05:40:49 10° N visible
14 Aug 9.5 09:07:01 10° N 09:09:46 13° NNE 09:12:29 10° NE visible
14 Aug 7.9 10:49:03 10° NNW 10:54:58 38° NE 11:00:35 10° ESE visible
15 Aug 9.1 04:58:05 10° W 05:02:26 20° NW 05:06:55 10° N visible
15 Aug 9.6 08:33:26 10° N 08:35:03 11° NNE 08:36:39 10° NNE visible
15 Aug 8.3 10:15:02 10° NNW 10:20:34 30° NE 10:25:51 10° ESE visible
15 Aug 6.4 11:58:05 10° NW 12:04:20 64° WSW 12:10:09 10° SSE visible
16 Aug 8.9 04:23:02 10° W 04:27:54 24° NW 04:32:59 10° NNE visible
16 Aug 8.7 09:41:03 10° NNW 09:46:06 24° NE 09:50:57 10° E visible
16 Aug 6.3 11:23:51 10° NNW 11:30:14 87° WSW 11:36:09 10° SSE visible
